Location: Croydon
(51.3762°N, 0.0982°W)
Time: 09:26:01
(UTC+00:00)

Altair - Pass Details

Date: 23 November 2019
Orbit: 1502 x 1682 km, 47.2° (Epoch: 06 December)

Event Time Altitude Azimuth Distance (km) Brightness Sun altitude
Rises 02:19:00 0° 229° (SW) 4,655 - -47.0°
Reaches altitude 10° 02:22:09 10° 224° (SW) 3,663 - -46.6°
Maximum altitude 02:30:49 49° 153° (SSE) 1,865 - -45.4°
Exits shadow 02:33:45 38° 109° (ESE) 2,154 8.3 -45.0°
Drops below altitude 10° 02:39:31 10° 82° (E) 3,673 10.0 -44.2°
Sets 02:42:40 0° 78° (ENE) 4,670 10.8 -43.8°
